• In Uzbekistan
  • List of Countries
  • For 7 days
  • Water Temperature
  • Satellite Maps
  • Weather Map
  • Weather Widgets
  • user-avatar
    Login

    Hourly Weather Medenin

    Today, 17 October, Wednesday

    Time Temperature Precipitation Wind Pressure Humidity
    00:00 +23°C° 0 mm 5 mps 724 mmHg 66%
    01:00 +23°C° 0 mm 5 mps 724 mmHg 68%
    02:00 +23°C° 0 mm 5 mps 723 mmHg 68%
    03:00 +23°C° 0 mm 4 mps 723 mmHg 68%
    04:00 +22°C° 0 mm 4 mps 723 mmHg 68%
    05:00 +22°C° 0 mm 4 mps 722 mmHg 66%
    06:00 +22°C° 0 mm 4 mps 722 mmHg 64%
    07:00 +22°C° 0 mm 4 mps 722 mmHg 60%
    08:00 +25°C° 0 mm 4 mps 722 mmHg 53%
    09:00 +26°C° 0 mm 5 mps 722 mmHg 46%
    10:00 +28°C° 0 mm 5 mps 722 mmHg 40%
    11:00 +30°C° 0 mm 6 mps 721 mmHg 34%
    12:00 +33°C° 0 mm 6 mps 721 mmHg 28%
    13:00 +34°C° 0 mm 7 mps 720 mmHg 22%
    14:00 +34°C° 0 mm 7 mps 720 mmHg 21%
    15:00 +34°C° 0 mm 7 mps 719 mmHg 20%
    16:00 +35°C° 0 mm 7 mps 719 mmHg 19%
    17:00 +33°C° 0 mm 7 mps 719 mmHg 24%
    18:00 +30°C° 0 mm 6 mps 719 mmHg 28%
    19:00 +29°C° 0 mm 5 mps 719 mmHg 33%
    20:00 +28°C° 0 mm 5 mps 719 mmHg 39%
    21:00 +27°C° 0 mm 6 mps 719 mmHg 45%
    22:00 +26°C° 0 mm 6 mps 719 mmHg 51%
    23:00 +24°C° 0 mm 6 mps 719 mmHg 53%

    Tomorrow, 18 October, Thursday

    Time Temperature Precipitation Wind Pressure Humidity
    00:00 +23°C° 0 mm 6 mps 719 mmHg 54%
    01:00 +23°C° 0 mm 7 mps 719 mmHg 55%
    02:00 +22°C° 0 mm 6 mps 719 mmHg 54%
    03:00 +22°C° 0 mm 5 mps 719 mmHg 54%
    04:00 +21°C° 0 mm 5 mps 719 mmHg 53%
    05:00 +21°C° 0 mm 5 mps 719 mmHg 53%
    06:00 +21°C° 0 mm 5 mps 719 mmHg 52%
    07:00 +21°C° 0 mm 5 mps 719 mmHg 52%
    08:00 +22°C° 0 mm 6 mps 720 mmHg 47%
    09:00 +23°C° 0 mm 7 mps 720 mmHg 42%
    10:00 +24°C° 0 mm 8 mps 721 mmHg 37%
    11:00 +26°C° 0 mm 8 mps 720 mmHg 36%
    12:00 +27°C° 0 mm 8 mps 720 mmHg 34%
    13:00 +28°C° 0 mm 8 mps 720 mmHg 32%
    14:00 +28°C° 0 mm 8 mps 720 mmHg 32%
    15:00 +28°C° 0 mm 7 mps 720 mmHg 32%
    16:00 +28°C° 0 mm 7 mps 720 mmHg 32%
    17:00 +27°C° 0 mm 5 mps 720 mmHg 34%
    18:00 +26°C° 0 mm 4 mps 720 mmHg 36%
    19:00 +25°C° 0 mm 3 mps 721 mmHg 38%
    20:00 +25°C° 0 mm 3 mps 721 mmHg 39%
    21:00 +24°C° 0 mm 2 mps 721 mmHg 41%
    22:00 +24°C° 0 mm 2 mps 722 mmHg 42%
    23:00 +23°C° 0 mm 2 mps 722 mmHg 43%

    Day after tomorrow, 19 October, Friday

    Time Temperature Precipitation Wind Pressure Humidity
    00:00 +23°C° 0 mm 1 mps 722 mmHg 45%
    01:00 +22°C° 0 mm 1 mps 722 mmHg 46%
    02:00 +22°C° 0 mm 1 mps 722 mmHg 47%
    03:00 +22°C° 0 mm 1 mps 722 mmHg 47%
    04:00 +21°C° 0 mm 1 mps 722 mmHg 48%
    05:00 +21°C° 0 mm 1 mps 722 mmHg 48%
    06:00 +21°C° 0 mm 1 mps 723 mmHg 49%
    07:00 +21°C° 0 mm 1 mps 723 mmHg 49%
    08:00 +22°C° 0 mm 1 mps 724 mmHg 47%
    09:00 +24°C° 0 mm 2 mps 725 mmHg 45%
    10:00 +25°C° 0 mm 2 mps 725 mmHg 42%
    11:00 +26°C° 0 mm 2 mps 725 mmHg 41%
    12:00 +26°C° 0 mm 2 mps 725 mmHg 40%
    13:00 +27°C° 0 mm 2 mps 726 mmHg 39%
    14:00 +27°C° 0 mm 2 mps 725 mmHg 40%
    15:00 +27°C° 0 mm 3 mps 725 mmHg 40%
    16:00 +28°C° 0 mm 3 mps 725 mmHg 40%
    17:00 +27°C° 0 mm 3 mps 725 mmHg 44%
    18:00 +26°C° 0 mm 3 mps 726 mmHg 49%
    19:00 +25°C° 0 mm 3 mps 726 mmHg 53%
    20:00 +25°C° 0 mm 3 mps 727 mmHg 56%
    21:00 +24°C° 0 mm 3 mps 727 mmHg 59%
    22:00 +24°C° 0 mm 2 mps 727 mmHg 62%
    23:00 +23°C° 0 mm 2 mps 727 mmHg 66%

    20 October, Saturday

    Time Temperature Precipitation Wind Pressure Humidity
    00:00 +23°C° 0 mm 2 mps 727 mmHg 69%
    01:00 +23°C° 0 mm 2 mps 727 mmHg 72%
    02:00 +21°C° 0 mm 2 mps 727 mmHg 75%
    03:00 +21°C° 0 mm 2 mps 727 mmHg 77%
    04:00 +21°C° 0 mm 2 mps 727 mmHg 79%
    05:00 +21°C° 0 mm 2 mps 728 mmHg 79%
    06:00 +20°C° 0 mm 2 mps 728 mmHg 80%
    07:00 +20°C° 0 mm 2 mps 728 mmHg 80%
    08:00 +21°C° 0 mm 3 mps 729 mmHg 72%
    09:00 +24°C° 0 mm 3 mps 729 mmHg 65%
    10:00 +25°C° 0 mm 3 mps 730 mmHg 57%
    11:00 +26°C° 0 mm 3 mps 730 mmHg 52%
    12:00 +27°C° 0 mm 3 mps 729 mmHg 46%
    13:00 +27°C° 0 mm 3 mps 729 mmHg 41%
    14:00 +27°C° 0 mm 4 mps 729 mmHg 41%
    15:00 +28°C° 0 mm 4 mps 729 mmHg 40%
    16:00 +28°C° 0 mm 4 mps 729 mmHg 40%
    17:00 +27°C° 0 mm 5 mps 729 mmHg 46%
    18:00 +26°C° 0 mm 5 mps 729 mmHg 53%
    19:00 +24°C° 0 mm 6 mps 729 mmHg 59%
    20:00 +23°C° 0 mm 5 mps 729 mmHg 62%
    21:00 +23°C° 0 mm 5 mps 729 mmHg 64%
    22:00 +22°C° 0 mm 5 mps 730 mmHg 66%
    23:00 +22°C° 0 mm 4 mps 729 mmHg 67%

    21 October, Sunday

    Time Temperature Precipitation Wind Pressure Humidity
    00:00 +22°C° 0 mm 4 mps 729 mmHg 68%
    01:00 +22°C° 0 mm 4 mps 729 mmHg 69%
    02:00 +22°C° 0 mm 3 mps 729 mmHg 71%
    03:00 +21°C° 0 mm 3 mps 729 mmHg 74%
    04:00 +21°C° 0 mm 3 mps 729 mmHg 77%
    05:00 +21°C° 0 mm 2 mps 729 mmHg 79%
    06:00 +21°C° 0 mm 2 mps 729 mmHg 82%
    07:00 +20°C° 0 mm 2 mps 729 mmHg 85%
    08:00 +21°C° 0 mm 3 mps 729 mmHg 78%
    09:00 +24°C° 0 mm 3 mps 730 mmHg 72%
    10:00 +25°C° 0 mm 3 mps 730 mmHg 65%
    11:00 +25°C° 0 mm 3 mps 730 mmHg 61%
    12:00 +26°C° 0 mm 3 mps 729 mmHg 57%
    13:00 +27°C° 0 mm 3 mps 729 mmHg 52%
    14:00 +27°C° 0 mm 4 mps 729 mmHg 52%
    15:00 +27°C° 0 mm 4 mps 729 mmHg 52%
    16:00 +27°C° 0 mm 4 mps 728 mmHg 52%
    17:00 +26°C° 0 mm 4 mps 728 mmHg 57%
    18:00 +25°C° 0 mm 4 mps 728 mmHg 63%
    19:00 +23°C° 0 mm 4 mps 729 mmHg 68%
    20:00 +23°C° 0 mm 4 mps 729 mmHg 70%
    21:00 +22°C° 0 mm 4 mps 729 mmHg 73%
    22:00 +22°C° 0 mm 3 mps 729 mmHg 75%
    23:00 +22°C° 0 mm 3 mps 729 mmHg 77%

    22 October, Monday

    Time Temperature Precipitation Wind Pressure Humidity
    00:00 +21°C° 0 mm 3 mps 729 mmHg 79%
    01:00 +21°C° 0 mm 3 mps 728 mmHg 81%
    02:00 +21°C° 0 mm 2 mps 728 mmHg 82%
    03:00 +20°C° 0 mm 2 mps 728 mmHg 83%
    04:00 +20°C° 0 mm 2 mps 728 mmHg 85%
    05:00 +20°C° 0 mm 2 mps 728 mmHg 84%
    06:00 +20°C° 0 mm 2 mps 728 mmHg 84%
    07:00 +20°C° 0 mm 2 mps 728 mmHg 84%
    08:00 +21°C° 0 mm 3 mps 729 mmHg 77%
    09:00 +22°C° 0 mm 3 mps 729 mmHg 70%
    10:00 +24°C° 0 mm 3 mps 729 mmHg 63%
    11:00 +25°C° 0 mm 3 mps 729 mmHg 59%
    12:00 +25°C° 0 mm 3 mps 728 mmHg 54%
    13:00 +26°C° 0 mm 4 mps 728 mmHg 49%
    14:00 +26°C° 0 mm 4 mps 728 mmHg 49%
    15:00 +26°C° 0 mm 4 mps 728 mmHg 48%
    16:00 +26°C° 0 mm 4 mps 727 mmHg 48%
    17:00 +25°C° 0 mm 4 mps 727 mmHg 52%
    18:00 +24°C° 0 mm 3 mps 728 mmHg 55%
    19:00 +24°C° 0 mm 3 mps 728 mmHg 59%
    20:00 +22°C° 0 mm 3 mps 728 mmHg 61%
    21:00 +23°C° 0 mm 2 mps 728 mmHg 63%
    22:00 +23°C° 0 mm 2 mps 728 mmHg 65%
    23:00 +21°C° 0.1 mm 2 mps 728 mmHg 66%
    Show more